Location: Angel
(38.7209°N, 82.2693°W)
Time: 18:29:09
(UTC+00:00)

N. Korean satellite - Visible Passes

Search period start: 09 December 2022 00:00
Search period end: 19 December 2022 00:00
Orbit: 420 x 452 km, 97.3° (Epoch: 08 December)

Date Brightness Start Highest point End Pass type
(mag) Time Alt. Az. Time Alt. Az. Time Alt. Az.
09 Dec 6.6 11:07:39 10° N 11:10:53 45° WNW 11:14:04 10° SSW visible
09 Dec 10.1 23:10:20 10° WSW 23:11:07 11° W 23:11:53 10° WNW visible
10 Dec 7.5 10:28:34 10° NNE 10:31:48 43° E 10:34:58 10° S visible
11 Dec 9.7 09:50:55 10° ENE 09:52:26 13° E 09:53:57 10° ESE visible
11 Dec 7.2 11:22:04 10° NNW 11:25:00 28° WNW 11:27:53 10° SW visible
12 Dec 6.5 10:42:33 10° NNE 10:45:54 72° ESE 10:49:11 10° S visible
12 Dec 9.3 22:43:07 10° SSW 22:45:52 23° W 22:48:37 10° NW visible
13 Dec 9.1 10:04:05 10° NE 10:06:32 19° E 10:08:58 10° SE visible
13 Dec 7.7 11:36:53 12° NNW 11:38:53 19° WNW 11:41:17 10° WSW visible
14 Dec 6.2 10:58:22 31° N 10:59:48 68° WNW 11:03:03 10° SSW visible
14 Dec 9.7 22:57:46 10° SW 22:59:48 15° W 23:01:52 10° NW visible
15 Dec 8.3 10:19:19 23° ENE 10:20:25 29° E 10:23:19 10° SSE visible
15 Dec 8.2 11:52:42 13° WNW 11:52:42 13° WNW 11:54:07 10° W visible
16 Dec 6.6 11:13:25 41° WNW 11:13:29 41° WNW 11:16:35 10° SW visible
17 Dec 7.4 10:34:01 45° E 10:34:07 45° E 10:37:16 10° S visible
18 Dec 9.6 09:54:31 13° E 09:54:31 13° E 09:56:03 10° ESE visible
18 Dec 7.6 11:27:54 23° W 11:27:54 23° W 11:29:46 10° SW visible
